| time (UTC) | temp C | wind direction | speed KPH | gust KPH | rain 1hr cm | rain 24hr cm | rain mn cm | humidity % | barometer mb |
| 20260906221014 | 30 | 348 | 11.3 | 14.5 | 0.00 | 0.00 | 0.00 | 36 | 1013.5 |
| 20260906220014 | 30 | 322 | 6.4 | 16.1 | 0.00 | 0.00 | 0.00 | 37 | 1013.9 |
| 20260906215014 | 30 | 51 | 6.4 | 16.1 | 0.00 | 0.00 | 0.00 | 37 | 1013.9 |
| 20260906214014 | 30 | 349 | 12.9 | 16.1 | 0.00 | 0.00 | 0.00 | 37 | 1013.9 |
| 20260906213014 | 30 | 23 | 8.0 | 17.7 | 0.00 | 0.00 | 0.00 | 37 | 1014.2 |
| 20260906211014 | 30 | 14 | 9.7 | 16.1 | 0.00 | 0.00 | 0.00 | 35 | 1014.2 |
| 20260906205014 | 29 | 330 | 4.8 | 14.5 | 0.00 | 0.00 | 0.00 | 37 | 1014.6 |
| 20260906203014 | 29 | 31 | 9.7 | 16.1 | 0.00 | 0.00 | 0.00 | 37 | 1014.9 |
| 20260906202014 | 29 | 304 | 3.2 | 17.7 | 0.00 | 0.00 | 0.00 | 36 | 1014.9 |
| 20260906200014 | 28 | 50 | 1.6 | 14.5 | 0.00 | 0.00 | 0.00 | 39 | 1014.9 |
| 20260906195014 | 28 | 23 | 3.2 | 19.3 | 0.00 | 0.00 | 0.00 | 39 | 1015.2 |
| 20260906194014 | 28 | 49 | 4.8 | 14.5 | 0.00 | 0.00 | 0.00 | 40 | 1015.2 |
| 20260906192113 | 27 | 41 | 6.4 | 14.5 | 0.00 | 0.00 | 0.00 | 38 | 1015.2 |
| 20260906191014 | 27 | 37 | 9.7 | 12.9 | 0.00 | 0.00 | 0.00 | 44 | 1015.6 |
| 20260906190014 | 27 | 91 | 12.9 | 14.5 | 0.00 | 0.00 | 0.00 | 43 | 1015.6 |
| 20260906185013 | 27 | 67 | 8.0 | 16.1 | 0.00 | 0.00 | 0.00 | 46 | 1015.9 |
| 20260906184014 | 27 | 29 | 3.2 | 11.3 | 0.00 | 0.00 | 0.00 | 49 | 1016.3 |
| 20260906183014 | 26 | 290 | 0.0 | 12.9 | 0.00 | 0.00 | 0.00 | 48 | 1016.3 |
| 20260906182014 | 26 | 19 | 12.9 | 11.3 | 0.00 | 0.00 | 0.00 | 49 | 1016.3 |
| 20260906181014 | 26 | 56 | 4.8 | 11.3 | 0.00 | 0.00 | 0.00 | 51 | 1016.6 |
| 20260906180014 | 25 | 11 | 6.4 | 11.3 | 0.00 | 0.00 | 0.00 | 52 | 1016.6 |
| 20260906175014 | 25 | 18 | 8.0 | 14.5 | 0.00 | 0.00 | 0.00 | 54 | 1016.9 |
| 20260906173014 | 24 | 144 | 1.6 | 9.7 | 0.00 | 0.00 | 0.00 | 57 | 1017.3 |
| 20260906172013 | 24 | 62 | 0.0 | 9.7 | 0.00 | 0.00 | 0.00 | 59 | 1017.3 |
| 20260906170013 | 22 | 42 | 4.8 | 8.0 | 0.00 | 0.00 | 0.00 | 63 | 1017.6 |
| 20260906165014 | 22 | 306 | 6.4 | 12.9 | 0.00 | 0.00 | 0.00 | 64 | 1017.9 |
| 20260906164013 | 22 | 17 | 4.8 | 9.7 | 0.00 | 0.00 | 0.00 | 65 | 1017.9 |
| 20260906163013 | 21 | 43 | 4.8 | 9.7 | 0.00 | 0.00 | 0.00 | 66 | 1017.9 |
| 20260906162014 | 21 | 69 | 3.2 | 12.9 | 0.00 | 0.00 | 0.00 | 66 | 1017.9 |
| 20260906161013 | 21 | 17 | 4.8 | 12.9 | 0.00 | 0.00 | 0.00 | 67 | 1017.6 |
| 20260906160013 | 20 | 11 | 1.6 | 11.3 | 0.00 | 0.00 | 0.00 | 70 | 1017.6 |
| 20260906155013 | 20 | 44 | 1.6 | 9.7 | 0.00 | 0.00 | 0.00 | 71 | 1017.6 |
| 20260906154013 | 20 | 55 | 8.0 | 9.7 | 0.00 | 0.00 | 0.00 | 70 | 1017.9 |
| 20260906153013 | 20 | 32 | 6.4 | 9.7 | 0.00 | 0.00 | 0.00 | 72 | 1017.9 |
| 20260906152013 | 20 | 41 | 3.2 | 11.3 | 0.00 | 0.00 | 0.00 | 73 | 1017.9 |
| 20260906151014 | 19 | 0 | 6.4 | 11.3 | 0.00 | 0.00 | 0.00 | 74 | 1017.9 |
| 20260906145014 | 18 | 13 | 4.8 | 12.9 | 0.00 | 0.00 | 0.00 | 77 | 1017.9 |
| 20260906144014 | 18 | 322 | 3.2 | 12.9 | 0.00 | 0.00 | 0.00 | 77 | 1017.9 |
| 20260906143013 | 18 | 1 | 3.2 | 11.3 | 0.00 | 0.00 | 0.00 | 76 | 1017.9 |
| 20260906142014 | 18 | 277 | 3.2 | 11.3 | 0.00 | 0.00 | 0.00 | 77 | 1017.9 |
| 20260906141013 | 18 | 343 | 6.4 | 9.7 | 0.00 | 0.00 | 0.00 | 75 | 1017.9 |
| 20260906140014 | 17 | 12 | 4.8 | 11.3 | 0.00 | 0.00 | 0.00 | 75 | 1017.9 |
| 20260906135013 | 17 | 300 | 6.4 | 9.7 | 0.00 | 0.00 | 0.00 | 75 | 1017.9 |
| 20260906134013 | 17 | 312 | 3.2 | 8.0 | 0.00 | 0.00 | 0.00 | 76 | 1017.6 |
| 20260906132013 | 16 | 284 | 4.8 | 6.4 | 0.00 | 0.00 | 0.00 | 76 | 1017.6 |
| 20260906131013 | 16 | 277 | 3.2 | 8.0 | 0.00 | 0.00 | 0.00 | 76 | 1017.6 |
| 20260906130013 | 16 | 277 | 6.4 | 8.0 | 0.00 | 0.00 | 0.00 | 76 | 1017.6 |
| 20260906125013 | 16 | 282 | 4.8 | 6.4 | 0.00 | 0.00 | 0.00 | 76 | 1017.3 |
| 20260906124014 | 16 | 271 | 3.2 | 4.8 | 0.00 | 0.00 | 0.00 | 76 | 1017.3 |
| 20260906122013 | 16 | 213 | 3.2 | 4.8 | 0.00 | 0.00 | 0.00 | 76 | 1017.3 |
| 20260906121013 | 16 | 0 | 0.0 | 4.8 | 0.00 | 0.00 | 0.00 | 76 | 1017.3 |
| 20260906115013 | 16 | 269 | 6.4 | 6.4 | 0.00 | 0.00 | 0.00 | 76 | 1017.3 |
| 20260906114013 | 16 | 295 | 3.2 | 4.8 | 0.00 | 0.00 | 0.00 | 77 | 1017.3 |
| 20260906113013 | 16 | 258 | 3.2 | 4.8 | 0.00 | 0.00 | 0.00 | 75 | 1017.3 |
| 20260906112013 | 16 | 300 | 3.2 | 4.8 | 0.00 | 0.00 | 0.00 | 76 | 1017.3 |
| 20260906111013 | 16 | 304 | 4.8 | 6.4 | 0.00 | 0.00 | 0.00 | 76 | 1017.3 |
| 20260906110013 | 16 | 262 | 4.8 | 8.0 | 0.00 | 0.00 | 0.00 | 74 | 1017.3 |
| 20260906105013 | 17 | 277 | 8.0 | 8.0 | 0.00 | 0.00 | 0.00 | 72 | 1017.3 |
| 20260906104013 | 17 | 276 | 6.4 | 6.4 | 0.00 | 0.00 | 0.00 | 72 | 1017.3 |
| 20260906103013 | 17 | 297 | 4.8 | 4.8 | 0.00 | 0.00 | 0.00 | 74 | 1016.9 |
| 20260906102013 | 17 | 271 | 3.2 | 4.8 | 0.00 | 0.00 | 0.00 | 71 | 1017.3 |
| 20260906101013 | 18 | 305 | 3.2 | 4.8 | 0.00 | 0.00 | 0.00 | 71 | 1016.9 |
| 20260906100013 | 18 | 354 | 3.2 | 4.8 | 0.00 | 0.00 | 0.00 | 72 | 1016.9 |
| 20260906095013 | 18 | 358 | 4.8 | 4.8 | 0.00 | 0.00 | 0.00 | 72 | 1016.9 |
| 20260906094013 | 18 | 39 | 1.6 | 3.2 | 0.00 | 0.00 | 0.00 | 71 | 1017.3 |
| 20260906093013 | 18 | 132 | 1.6 | 4.8 | 0.00 | 0.00 | 0.00 | 70 | 1017.3 |
| 20260906092013 | 18 | 69 | 3.2 | 6.4 | 0.00 | 0.00 | 0.00 | 69 | 1016.9 |
| 20260906091013 | 18 | 0 | 0.0 | 6.4 | 0.00 | 0.00 | 0.00 | 67 | 1016.6 |
| 20260906090013 | 18 | 37 | 4.8 | 6.4 | 0.00 | 0.00 | 0.00 | 65 | 1016.6 |
| 20260906085013 | 19 | 36 | 1.6 | 8.0 | 0.00 | 0.00 | 0.00 | 63 | 1016.6 |
| 20260906084013 | 19 | 5 | 3.2 | 11.3 | 0.00 | 0.00 | 0.00 | 62 | 1016.3 |
| 20260906082013 | 19 | 30 | 3.2 | 12.9 | 0.00 | 0.00 | 0.00 | 59 | 1016.3 |
| 20260906081013 | 20 | 27 | 4.8 | 11.3 | 0.00 | 0.00 | 0.00 | 56 | 1016.6 |
| 20260906080013 | 20 | 71 | 4.8 | 11.3 | 0.00 | 0.00 | 0.00 | 53 | 1016.6 |
| 20260906075013 | 21 | 52 | 6.4 | 11.3 | 0.00 | 0.00 | 0.00 | 49 | 1016.6 |
| 20260906074013 | 21 | 325 | 6.4 | 9.7 | 0.00 | 0.00 | 0.00 | 47 | 1016.3 |
| 20260906073013 | 21 | 351 | 6.4 | 11.3 | 0.00 | 0.00 | 0.00 | 47 | 1016.3 |
| 20260906072013 | 22 | 319 | 4.8 | 9.7 | 0.00 | 0.00 | 0.00 | 46 | 1016.3 |
| 20260906071013 | 22 | 300 | 4.8 | 4.8 | 0.00 | 0.00 | 0.00 | 45 | 1016.6 |
| 20260906070013 | 22 | 356 | 1.6 | 8.0 | 0.00 | 0.00 | 0.00 | 45 | 1016.6 |
| 20260906065013 | 21 | 297 | 3.2 | 8.0 | 0.00 | 0.00 | 0.00 | 44 | 1016.6 |
| 20260906062013 | 23 | 312 | 3.2 | 6.4 | 0.00 | 0.00 | 0.00 | 41 | 1016.3 |
| 20260906061013 | 23 | 344 | 3.2 | 9.7 | 0.00 | 0.00 | 0.00 | 40 | 1016.3 |
| 20260906060013 | 23 | 357 | 6.4 | 8.0 | 0.00 | 0.00 | 0.00 | 40 | 1016.3 |
| 20260906052013 | 22 | 165 | 3.2 | 17.7 | 0.00 | 0.00 | 0.00 | 40 | 1016.9 |
| 20260906050013 | 22 | 207 | 4.8 | 6.4 | 0.00 | 0.00 | 0.00 | 43 | 1016.6 |
| 20260906043013 | 23 | 273 | 3.2 | 6.4 | 0.00 | 0.00 | 0.00 | 40 | 1016.3 |
| 20260906041013 | 23 | 100 | 4.8 | 8.0 | 0.00 | 0.00 | 0.00 | 37 | 1015.9 |
| 20260906040013 | 24 | 78 | 6.4 | 11.3 | 0.00 | 0.00 | 0.00 | 37 | 1015.9 |
| 20260906035013 | 24 | 98 | 3.2 | 6.4 | 0.00 | 0.00 | 0.00 | 36 | 1015.6 |
| 20260906034013 | 25 | 62 | 3.2 | 8.0 | 0.00 | 0.00 | 0.00 | 36 | 1015.6 |
| 20260906033013 | 25 | 52 | 6.4 | 9.7 | 0.00 | 0.00 | 0.00 | 35 | 1015.6 |
| 20260906031013 | 25 | 300 | 4.8 | 6.4 | 0.00 | 0.00 | 0.00 | 35 | 1015.2 |
| 20260906030013 | 26 | 33 | 6.4 | 12.9 | 0.00 | 0.00 | 0.00 | 34 | 1015.2 |
| 20260906025013 | 26 | 44 | 6.4 | 12.9 | 0.00 | 0.00 | 0.00 | 33 | 1014.9 |
| 20260906024013 | 26 | 50 | 8.0 | 8.0 | 0.00 | 0.00 | 0.00 | 33 | 1014.9 |
| 20260906023012 | 26 | 50 | 4.8 | 6.4 | 0.00 | 0.00 | 0.00 | 32 | 1014.9 |
| 20260906022013 | 26 | 37 | 4.8 | 9.7 | 0.00 | 0.00 | 0.00 | 32 | 1014.9 |
| 20260906021013 | 27 | 354 | 3.2 | 6.4 | 0.00 | 0.00 | 0.00 | 32 | 1014.9 |
| 20260906020012 | 27 | 332 | 3.2 | 4.8 | 0.00 | 0.00 | 0.00 | 33 | 1014.9 |
| 20260906015012 | 27 | 15 | 1.6 | 6.4 | 0.00 | 0.00 | 0.00 | 32 | 1014.9 |
| 20260906014012 | 27 | 74 | 1.6 | 9.7 | 0.00 | 0.00 | 0.00 | 32 | 1014.9 |
| 20260906013013 | 27 | 306 | 4.8 | 14.5 | 0.00 | 0.00 | 0.00 | 31 | 1014.6 |
| 20260906012012 | 28 | 320 | 11.3 | 17.7 | 0.00 | 0.00 | 0.00 | 32 | 1014.6 |
| 20260906011013 | 28 | 260 | 4.8 | 16.1 | 0.00 | 0.00 | 0.00 | 30 | 1014.6 |
| 20260906010013 | 29 | 307 | 8.0 | 16.1 | 0.00 | 0.00 | 0.00 | 29 | 1014.6 |
| 20260906005013 | 29 | 300 | 11.3 | 14.5 | 0.00 | 0.00 | 0.00 | 28 | 1014.6 |
| 20260906004012 | 29 | 297 | 4.8 | 16.1 | 0.00 | 0.00 | 0.00 | 28 | 1014.6 |
| 20260906003012 | 30 | 303 | 9.7 | 17.7 | 0.00 | 0.00 | 0.00 | 28 | 1014.6 |
| 20260906002012 | 30 | 299 | 9.7 | 19.3 | 0.00 | 0.00 | 0.00 | 27 | 1014.6 |
| 20260906001012 | 31 | 299 | 12.9 | 19.3 | 0.00 | 0.00 | 0.00 | 28 | 1014.6 |
| 20260906000013 | 31 | 297 | 6.4 | 11.3 | 0.00 | 0.00 | 0.00 | 27 | 1014.6 |
| 20260905234012 | 32 | 326 | 4.8 | 11.3 | 0.00 | 0.00 | 0.00 | 24 | 1014.6 |
| 20260905232013 | 32 | 327 | 3.2 | 11.3 | 0.00 | 0.00 | 0.00 | 22 | 1014.2 |
| 20260905231012 | 32 | 39 | 3.2 | 11.3 | 0.00 | 0.00 | 0.00 | 22 | 1014.2 |
| 20260905230013 | 32 | 309 | 3.2 | 12.9 | 0.00 | 0.00 | 0.00 | 22 | 1014.2 |
| 20260905225013 | 32 | 10 | 3.2 | 14.5 | 0.00 | 0.00 | 0.00 | 22 | 1014.2 |
| 20260905223012 | 32 | 63 | 4.8 | 17.7 | 0.00 | 0.00 | 0.00 | 22 | 1014.2 |
| 20260905222013 | 32 | 342 | 3.2 | 16.1 | 0.00 | 0.00 | 0.00 | 22 | 1014.2 |